Regional Weather Roundup
Issued by NWS

Home | Current Version | Previous Version | Graphics & Text | Print | Product List | Glossary On
Versions: 1 2 3 4 5 6 7 8 9 10 11 12 13 14 15 16 17 18 19 20 21 22 23 24 25 26 27 28 29 30 31 32 33 34 35 36 37 38 39 40 41 42 43 44 45 46 47 48 49 50
475
ASUS45 KBOU 241510
RWRCO

WEATHER ROUNDUP FOR COLORADO
NATIONAL WEATHER SERVICE DENVER/BOULDER CO
900 AM MDT SAT SEP 24 2016

NOTE: "FAIR" INDICATES FEW OR NO CLOUDS BELOW 12000 FEET WITH NO
SIGNIFICANT WEATHER AND/OR OBSTRUCTIONS TO VISIBILITY.

COZ001>005-013-030-031-241600-
...NORTHWEST COLORADO...

CITY           SKY/WX    TMP DP  RH WIND       PRES   REMARKS
CRAIG          LGT RAIN  42  36  79 SW12      30.12R
HAYDEN         CLOUDY    39  34  81 SW3       30.12R
MEEKER         LGT RAIN  40  37  89 CALM      30.15R
MOUNT WERNER   NOT AVBL
STEAMBOAT SPGS CLOUDY    38  35  90 SE5       30.13R
WALDEN           N/A     36  30  80 S14G21    30.13R
$$

COZ006>008-011-241600-
...WEST CENTRAL VALLEYS...

CITY           SKY/WX    TMP DP  RH WIND       PRES   REMARKS
GRAND JUNCTION LGT RAIN  48  43  82 SE3       30.16R
MONTROSE       CLOUDY    45  39  79 CALM      30.19R
EAGLE          CLOUDY    39  37  93 CALM      30.19R
RIFLE          LGT RAIN  44  43  96 E5        30.16R
DELTA          LGT RAIN  48  42  79 NE5       30.17R
NUCLA          CLOUDY    48  34  57 CALM      30.22R
$$

COZ017>023-064>068-241600-
...SOUTHWEST COLORADO...

CITY           SKY/WX    TMP DP  RH WIND       PRES   REMARKS
DURANGO        FAIR      41  34  76 CALM      30.21R
CORTEZ         CLOUDY    47  39  74 CALM      30.20R
PAGOSA SPRINGS FAIR      36  31  85 CALM      30.24S
TELLURIDE      CLOUDY    38  29  71 CALM      30.27R
WOLF CREEK PAS FAIR      25  23  93 MISG      30.33R
$$

COZ009-010-012-014-032>034-037-058>063-241600-
...CENTRAL COLORADO...

CITY           SKY/WX    TMP DP  RH WIND       PRES   REMARKS
ASPEN          CLOUDY    40  35  83 N8        30.16R
BUENA VISTA    CLOUDY    43  23  46 CALM      30.15R
COPPER MTN     FAIR      30  19  64 SW12      30.22R WCI  21
BERTHOUD PASS  CLOUDY    21   7  53 NW20G35   30.18R WCI   6
COTTONWOOD PAS CLOUDY    41  23  48 W17G24    30.18R
GUNNISON       CLOUDY    34  30  86 CALM      30.23R
KREMMLING      DRIZZLE   37  32  81 N5        30.16R
LEADVILLE      FAIR      37  19  48 CALM      30.16S
SALIDA         CLOUDY    47  24  39 SW13G20   30.23R
SUNLIGHT       HVY SNOW  32  30  93 SW13G26   30.24R VSB<1/4 WCI  22
WILKERSON PASS FAIR      28  23  80 SW14G21   30.21R WCI  17
$$

COZ069>075-241600-
...SAN LUIS VALLEY/SANGRE DE CRISTO MOUNTAINS...

CITY           SKY/WX    TMP DP  RH WIND       PRES   REMARKS
ALAMOSA        FOG       30  30 100 VRB3      30.21R VSB 1/4
LA VETA PASS   FAIR      34  28  80 MISG      30.20R
SAGUACHE       NOT AVBL
$$

COZ035-036-038>040-241600-
...NORTHERN COLORADO FRONT RANGE...

CITY           SKY/WX    TMP DP  RH WIND       PRES   REMARKS
DENVER INTL AP FAIR      57  22  25 SW13      30.01R
DMNS CITY PARK   N/A     55  33  44 E8        30.01R
AURORA         MOSUNNY   55  22  27 S8        30.02R
FRONT RANGE AP MOSUNNY   59  23  25 S14       30.02R
ERIE MUNI ARPT FAIR      49  40  70 SW3       30.01R
BOULDER MUN AP FAIR      48  41  76 NE3       30.00S
CENTENNIAL     FAIR      54  22  28 CALM      30.02R
BROOMFIELD     MOSUNNY   50  39  66 CALM      30.02R
FORT COLLINS   FAIR      46  39  76 SE6       30.02S
LONGMONT       FAIR      50  42  74 CALM      30.02S
$$

COZ041-046-047-076>085-087-088-241600-
...PIKES PEAK/PALMER DIVIDE AND SOUTHERN FOOTHILLS...

CITY           SKY/WX    TMP DP  RH WIND       PRES   REMARKS
COLO. SPRINGS  FAIR      50  20  30 E5        30.08R
A. F. ACADEMY  FAIR      52  19  28 SE6       30.07R
SCHRIEVER AFB  NOT AVBL
ELLICOTT       FAIR     N/A N/A N/A S13       30.05S
FALCON         FAIR      51  19  27 S7        30.10R
FORT CARSON    FAIR      50  22  33 NE3       30.06R
LIMON          FAIR      48  36  63 S5        30.04S
MONUMENT HILL  FAIR      52  21  30 SW12G17   30.09R
TRINIDAD       FAIR      55  24  30 SE7       30.06F
$$

COZ042>045-048>051-090-091-241600-
...NORTHEAST COLORADO...

CITY           SKY/WX    TMP DP  RH WIND       PRES   REMARKS
GREELEY ARPT   FAIR      50  41  71 SE6       30.02S
AKRON          FAIR      50  38  63 SW7       30.02R
BURLINGTON     FAIR      53  39  59 NW8       30.04R
WRAY           NOT AVBL
STERLING       FAIR      50  41  71 SW13      30.00R
HOLYOKE        FAIR      55  43  62 W6        30.00R
FORT MORGAN    FAIR      50  37  60 SE3       30.03R
$$

COZ086-089-092>099-241600-
...SOUTHEAST COLORADO...

CITY           SKY/WX    TMP DP  RH WIND       PRES   REMARKS
PUEBLO         FAIR      57  24  28 W8        30.04R
LA JUNTA       FAIR      58  29  33 E6        30.04R
LAMAR          FAIR      56  40  55 VRB3      30.03R
SPRINGFIELD    NOT AVBL
$$




USA.gov is the U.S. government's official web portal to all federal, state and local government web resources and services.